Regional Weather Roundup
Issued by NWS

Home | Current Version | Previous Version | Text Only | Print | Product List | Glossary Off
Versions: 1 2 3 4 5 6 7 8 9 10 11 12 13 14 15 16 17 18 19 20 21 22 23 24 25 26 27 28 29 30 31 32 33 34 35 36 37 38 39 40 41 42 43 44 45 46 47 48 49 50

000
ASUS43 KMPX 260810
RWRMN
WEATHER ROUNDUP FOR MINNESOTA
NATIONAL WEATHER SERVICE TWIN CITIES/CHANHASSEN MN
300 AM CDT THU MAR 26 2015


NOTE: "FAIR" INDICATES FEW OR NO CLOUDS BELOW 12,000 FEET WITH NO
SIGNIFICANT WEATHER AND/OR OBSTRUCTIONS TO VISIBILITY. N/A MEANS
CURRENT SKY AND/OR WEATHER CONDITIONS ARE NOT AVAILABLE.

MNZ060>063-068>070-260900-
   Twin Cities Metro

CITY           SKY/WX    TMP DP  RH WIND       PRES   REMARKS
TWIN CITIES    CLOUDY    31  20  63 NW17G24   30.07S WCI  19
ST PAUL        CLOUDY    32  20  61 NW13G21   30.08S WCI  22
CRYSTAL        CLOUDY    32  20  61 NW16G24   30.06S WCI  21
BLAINE         CLOUDY    34  21  60 W9        30.06F WCI  26
LAKEVILLE      CLEAR     27  19  74 NW10      30.07F WCI  17
EDEN PRAIRIE   CLEAR     31  19  61 NW8       30.07F WCI  23
SOUTH ST PAUL  MOCLDY    33  20  60 NW14      30.07S WCI  23
LAKE ELMO      CLOUDY    32  21  64 W9        30.06S WCI  24
$$
MNZ001>005-007-008-013>017-022>024-027-028-260900-
   Northwest Minnesota

CITY           SKY/WX    TMP DP  RH WIND       PRES   REMARKS
BEMIDJI        CLOUDY    25  18  76 NW13      30.09R WCI  13
HALLOCK        CLOUDY    25  19  80 N8        30.20R WCI  16
ROSEAU         CLOUDY    25  18  74 N12       30.15R WCI  14
WARROAD        CLOUDY    25  18  74 NW7       30.15R WCI  17
THIEF RVR FALL CLOUDY    23  18  80 NW12      30.16R WCI  12
CROOKSTON      CLEAR     21  19  93 NW8       30.20R WCI  12
FOSSTON        CLOUDY    19  18  93 NW9       30.14R WCI   9
DETROIT LAKES  PTCLDY    23  19  86 NW9       30.14S WCI  13
MOORHEAD       PTCLDY    27  25  93 N6        30.19R WCI  20
PARK RAPIDS    CLOUDY    26  18  71 NW13      30.08R WCI  15
MAHNOMEN       FAIR      21  18  88 NW9       30.14R WCI  10
$$
MNZ006-009>011-018-025>026-260900-
   North Central Minnesota

CITY           SKY/WX    TMP DP  RH WIND       PRES   REMARKS
BAUDETTE       CLOUDY    22  15  75 N14       30.11R WCI   9
FLAG ISLAND    CLOUDY    21  14  73 N16       30.13R WCI   7
INTL FALLS     CLOUDY    21  14  74 N13       30.07R WCI   9
WASKISH        CLOUDY    25  19  80 NW12      30.10R WCI  14
BIG FORK       FLURRIES  25  19  80 N8G16     30.05R WCI  16
LONGVILLE      CLOUDY    27  19  74 NW7       30.07R WCI  19
GRAND RAPIDS   CLOUDY    27  14  59 NW20G26   30.02R WCI  13
CRANE LAKE     CLOUDY    19  12  73 NW14G22   30.06R WCI   6
ORR            FLURRIES  21  14  73 NW6       30.01R WCI  14
COOK           FLURRIES  21  16  79 NW6       30.02R WCI  14
WALKER         CLOUDY    26  18  72 NW5       30.07S WCI  20
$$
MNZ012-019>021-037-260900-
   Northeast Minnesota

CITY           SKY/WX    TMP DP  RH WIND       PRES   REMARKS
DULUTH         FLURRIES  27  19  72 NW15G24   29.96R WCI  15
ELY            FLURRIES  19  12  73 NW17G24   29.98R WCI   4
HIBBING        FLURRIES  25  18  74 N14       30.00R WCI  13
EVELETH        MIX PCPN  25  18  74 N9G20     30.00R WCI  15
DULUTH HARBOR  CLOUDY    32  25  74 NW13      30.01R WCI  22
TWO HARBORS    CLOUDY    28  19  69 NW12G22   29.94R WCI  18
SILVER BAY     MOCLDY    25  16  68 NW7G20    29.91R WCI  17
GRAND MARAIS     N/A     26  15  63 N16G37    29.84R WCI  14
G MARAIS ARPRT FLURRIES  18  10  73 NW14G22   29.85R WCI   4
$$
MNZ029>031-032-039>041-046>048-054>057-064-260900-
   West Central Minnesota

CITY           SKY/WX    TMP DP  RH WIND       PRES   REMARKS
FERGUS FALLS   CLOUDY    27  21  80 N9G16     30.17F WCI  17
WHEATON        PTCLDY    27  21  80 N8        30.19R WCI  18
MORRIS         CLEAR     28  23  80 N13       30.14R WCI  18
ALEXANDRIA     CLOUDY    27  19  72 NW15      30.12R WCI  15
ELBOW LAKE     CLOUDY    26  23  88 NW8       30.14S WCI  17
WADENA         CLEAR     21  18  86 NW12      30.10S WCI   9
GLENWOOD       CLEAR     27  21  80 NW12      30.12R WCI  16
APPLETON       CLEAR     30  27  86 NW8       30.15S WCI  23
BENSON         CLEAR     28  23  80 N10       30.14R WCI  19
ORTONVILLE     PTCLDY    30  23  74 NW8       30.15S WCI  23
MADISON        PTCLDY    30  25  80 NW8       30.15S WCI  23
WILLMAR        FAIR      28  21  74 NW7       30.13S WCI  21
$$
MNZ033>034-036-042>043-049>051-058-059-260900-
   Central Minnesota

CITY           SKY/WX    TMP DP  RH WIND       PRES   REMARKS
ST CLOUD       FAIR      27  19  72 NW10      30.08R WCI  17
SAUK CENTRE    FAIR      26  21  79 NW10      30.10R WCI  16
PAYNESVILLE    CLEAR     25  20  81 W8        30.11S WCI  16
AITKIN         CLOUDY    30  21  69 NW7G21    30.04R WCI  23
PINE RIVER     CLOUDY    27  19  74 NW13      30.10R WCI  16
BRAINERD       CLOUDY    28  18  66 N18G25    30.07R WCI  15
STAPLES        CLEAR     23  18  80 NW10      30.09R WCI  12
LONG PRAIRIE   FAIR      27  19  74 W12       30.09S WCI  16
LITTLE FALLS   CLEAR     28  19  69 NW12      30.08R WCI  18
LITCHFIELD     CLEAR     28  21  74 W8        30.11S WCI  20
BUFFALO        CLEAR     30  20  66 W9        30.09F WCI  21
MAPLE LAKE     CLEAR     30  23  75 W7        30.09S WCI  23
$$
MNZ037-044-045-052-053-260900-
   East Central Minnesota

CITY           SKY/WX    TMP DP  RH WIND       PRES   REMARKS
PRINCETON      CLOUDY    32  21  64 W12       30.06S WCI  23
MORA           CLOUDY    32  21  64 N15G23    30.06R WCI  22
CAMBRIDGE      CLOUDY    34  21  60 W7        30.03S WCI  28
RUSH CITY      CLOUDY    32  21  64 NW10G18   30.04R WCI  24
MOOSE LAKE     CLOUDY    30  19  64 NW8G17    30.01R WCI  23
HINCKLEY       CLOUDY    32  23  69 N10G18    30.04R WCI  24
CLOQUET        CLOUDY    28  18  64 NW17G25   29.98R WCI  16
MCGREGOR       CLOUDY    30  21  69 NW13G22   30.03R WCI  20
$$
MNZ071>073-080-081-089-090-097-098-260900-
   Southwest Minnesota

CITY           SKY/WX    TMP DP  RH WIND       PRES   REMARKS
MONTEVIDEO     CLEAR     30  23  74 N6        30.16R WCI  24
GRANITE FALLS  CLEAR     30  24  78 NW7       30.16S WCI  23
CANBY          PTCLDY    31  25  78 NW8       30.17S WCI  24
MARSHALL       PTCLDY    28  19  69 NW10      30.15S WCI  19
REDWOOD FALLS  CLEAR     32  23  69 NW10      30.13F WCI  24
OLIVIA         CLEAR     28  25  86 NW7       30.12F WCI  21
PIPESTONE      PTCLDY    25  19  80 W7        30.15R WCI  17
WINDOM         CLEAR     28  23  80 NW5       30.13S WCI  23
WORTHINGTON    PTCLDY    30  19  64 W9        30.16R WCI  22
JACKSON        MOCLDY    30  23  74 W7        30.14S WCI  23
TRACY          PTCLDY    30  24  79 NW8       30.14S WCI  22
SLAYTON        FAIR      26  20  77 CALM      30.14S
$$
MNZ065>067-074>077-082>085-091>093-260900-
   South Central Minnesota

CITY           SKY/WX    TMP DP  RH WIND       PRES   REMARKS
MANKATO        CLEAR     30  21  69 NW12      30.10F WCI  21
NEW ULM        CLEAR     30  21  69 NW10      30.12S WCI  21
ST JAMES       CLEAR     30  25  80 W6        30.14S WCI  24
FAIRMONT       CLEAR     28  19  69 NW9       30.12S WCI  20
GLENCOE        CLEAR     29  23  76 W10       30.09F WCI  20
FARIBAULT      CLEAR     28  21  74 W12       30.09F WCI  18
OWATONNA       CLEAR     28  19  69 W13       30.08F WCI  18
WASECA         CLEAR     28  21  74 NW9       30.11S WCI  20
ALBERT LEA     CLEAR     30  21  69 NW13      30.08F WCI  20
$$
MNZ078>079-086>088-094>096-260900-
   Southeast Minnesota

CITY           SKY/WX    TMP DP  RH WIND       PRES   REMARKS
ROCHESTER      CLEAR     28  20  71 NW15      30.04F WCI  16
RED WING       CLOUDY    32  19  59 NW9       30.05S WCI  24
STANTON        CLEAR     30  21  69 W6        30.06F WCI  24
DODGE CENTER   CLEAR     30  21  69 NW16G22   30.05F WCI  19
WINONA         CLEAR     34  25  69 NW9G18    30.04F WCI  26
AUSTIN         CLEAR     28  21  74 NW10      30.06F WCI  19
PRESTON        CLEAR     27  22  80 NW16      30.04F WCI  15
$$
ABBREVIATIONS USED IN REMARKS
   TC - TEMPERATURES IN CELSIUS
  WCI - WIND CHILL INDEX
   HX - HEAT INDEX
  VSB - VISIBILITY
$$



USA.gov is the U.S. government's official web portal to all federal, state and local government web resources and services.